KC4BAM Weather Reports


Display with metric or nautical units.
time (UTC)temp
F
wind
direction
speed
MPH
gust
MPH
rain 1hr
in
rain 24hr
in
rain mn
in
humidity
%
barometer
mb
20260901145555 88 191 0.0 2.0 0.00 0.00 0.00 66 1010.6
20260901145053 88 190 2.0 3.0 0.00 0.00 0.00 66 1010.5
20260901144550 88 214 2.0 3.0 0.00 0.00 0.00 66 1010.7
20260901144044 88 185 3.0 3.0 0.00 0.00 0.00 67 1010.8
20260901143540 87 198 1.0 3.0 0.00 0.00 0.00 68 1010.6
20260901143037 87 198 2.0 3.0 0.00 0.00 0.00 69 1010.7
20260901142537 87 215 3.0 3.0 0.00 0.00 0.00 69 1010.6
20260901142032 87 213 2.0 2.0 0.00 0.00 0.00 70 1010.7
20260901141532 86 191 1.0 6.0 0.00 0.00 0.00 72 1010.8
20260901141027 86 192 0.0 2.0 0.00 0.00 0.00 73 1010.9
20260901140525 85 184 2.0 3.0 0.00 0.00 0.00 73 1010.8
20260901140021 85 190 0.0 2.0 0.00 0.00 0.00 74 1010.8
20260901135519 84 187 2.0 2.0 0.00 0.00 0.00 75 1010.7
20260901135015 84 206 2.0 4.0 0.00 0.00 0.00 76 1010.9
20260901134511 84 195 0.0 2.0 0.00 0.00 0.00 78 1010.7
20260901134006 84 191 0.0 2.0 0.00 0.00 0.00 79 1010.5
20260901133505 83 184 2.0 2.0 0.00 0.00 0.00 79 1010.7
20260901133004 83 189 0.0 0.0 0.00 0.00 0.00 81 1010.7
20260901132503 83 189 0.0 0.0 0.00 0.00 0.00 82 1010.7
20260901132002 82 190 0.0 0.0 0.00 0.00 0.00 84 1010.6
20260901131456 82 205 0.0 0.0 0.00 0.00 0.00 86 1010.7
20260901130952 81 190 0.0 0.0 0.00 0.00 0.00 88 1010.6
20260901130446 79 189 0.0 0.0 0.00 0.00 0.00 90 1010.7
20260901125944 78 195 0.0 0.0 0.00 0.00 0.00 90 1010.6
20260901125439 78 189 0.0 0.0 0.00 0.00 0.00 92 1010.5
20260901124938 76 189 0.0 0.0 0.00 0.00 0.00 94 1010.5
20260901124434 76 189 0.0 0.0 0.00 0.00 0.00 94 1010.5
20260901123929 75 187 0.0 0.0 0.00 0.00 0.00 95 1010.5
20260901123423 74 191 0.0 0.0 0.00 0.00 0.00 96 1010.4
20260901122921 73 191 0.0 0.0 0.00 0.00 0.00 96 1010.4
20260901122416 73 192 0.0 0.0 0.00 0.00 0.00 96 1010.4
20260901121915 73 192 0.0 0.0 0.00 0.00 0.00 96 1010.4
20260901121411 72 196 0.0 0.0 0.00 0.00 0.00 96 1010.3
20260901120906 72 186 0.0 0.0 0.00 0.00 0.00 96 1010.2
20260901120406 72 191 0.0 0.0 0.00 0.00 0.00 96 1010.0
20260901115901 72 192 0.0 0.0 0.00 0.00 0.00 96 1010.1
20260901115401 72 192 0.0 0.0 0.00 0.00 0.00 96 1010.2
20260901114859 72 192 0.0 0.0 0.00 0.00 0.00 96 1010.0
20260901114354 72 190 0.0 0.0 0.00 0.00 0.00 96 1010.1
20260901113853 72 190 0.0 0.0 0.00 0.00 0.00 96 1009.7
20260901113352 72 190 0.0 0.0 0.00 0.00 0.00 96 1009.7
20260901112847 72 190 0.0 0.0 0.00 0.00 0.00 96 1009.7
20260901112347 72 190 0.0 0.0 0.00 0.00 0.00 96 1009.8
20260901111842 72 188 0.0 0.0 0.00 0.00 0.00 96 1009.6
20260901111340 72 188 0.0 0.0 0.00 0.00 0.00 96 1009.7
20260901110839 72 188 0.0 0.0 0.00 0.00 0.00 96 1009.5
20260901110335 72 188 0.0 0.0 0.00 0.00 0.00 96 1009.5
20260901105831 72 188 0.0 0.0 0.00 0.00 0.00 96 1009.3
20260901105326 72 188 0.0 0.0 0.00 0.00 0.00 96 1009.4
20260901104822 72 188 0.0 0.0 0.00 0.00 0.00 96 1009.2
20260901104317 72 188 0.0 0.0 0.00 0.00 0.00 96 1009.3
20260901103813 72 188 0.0 0.0 0.00 0.00 0.00 96 1009.3
20260901103312 72 187 0.0 0.0 0.00 0.00 0.00 96 1009.3
20260901102807 72 187 0.0 0.0 0.00 0.00 0.00 96 1009.1
20260901102306 72 185 0.0 0.0 0.00 0.00 0.00 96 1009.4
20260901101758 72 185 0.0 0.0 0.00 0.00 0.00 96 1009.3
20260901101257 72 184 0.0 0.0 0.00 0.00 0.00 96 1009.3
20260901100756 72 193 0.0 0.0 0.00 0.00 0.00 96 1009.4
20260901100251 72 193 0.0 0.0 0.00 0.00 0.00 95 1009.1
20260901095749 72 193 0.0 0.0 0.00 0.00 0.00 95 1009.1
20260901095248 72 193 0.0 0.0 0.00 0.00 0.00 95 1009.2
20260901094742 72 193 0.0 0.0 0.00 0.00 0.00 95 1009.0
20260901094237 72 193 0.0 0.0 0.00 0.00 0.00 95 1009.2
20260901093732 72 193 0.0 0.0 0.00 0.00 0.00 95 1009.1
20260901093231 72 193 0.0 0.0 0.00 0.00 0.00 95 1009.0
20260901092727 72 190 0.0 0.0 0.00 0.00 0.00 95 1008.9
20260901092223 72 190 0.0 0.0 0.00 0.00 0.00 95 1009.0
20260901091718 72 190 0.0 0.0 0.00 0.00 0.00 95 1008.9
20260901091214 72 190 0.0 0.0 0.00 0.00 0.00 95 1008.9
20260901090708 73 190 0.0 0.0 0.00 0.00 0.00 95 1008.9
20260901090203 73 190 0.0 0.0 0.00 0.00 0.00 95 1009.0
20260901085659 73 190 0.0 0.0 0.00 0.00 0.00 95 1008.7
20260901085155 72 190 0.0 0.0 0.00 0.00 0.00 95 1008.9
20260901084651 73 190 0.0 0.0 0.00 0.00 0.00 95 1008.8
20260901084148 73 190 0.0 0.0 0.00 0.00 0.00 95 1008.7
20260901083647 73 190 0.0 0.0 0.00 0.00 0.00 95 1008.8
20260901083145 73 190 0.0 0.0 0.00 0.00 0.00 95 1008.8
20260901082639 73 190 0.0 0.0 0.00 0.00 0.00 94 1008.6
20260901082135 73 190 0.0 0.0 0.00 0.00 0.00 94 1008.6
20260901081630 73 190 0.0 0.0 0.00 0.00 0.00 94 1008.5
20260901081125 73 190 0.0 0.0 0.00 0.00 0.00 94 1008.5
20260901080620 73 190 0.0 0.0 0.00 0.00 0.00 94 1008.5
20260901080119 73 190 0.0 0.0 0.00 0.00 0.00 94 1008.5
20260901075614 73 190 0.0 0.0 0.00 0.00 0.00 94 1008.5
20260901075114 73 190 0.0 0.0 0.00 0.00 0.00 94 1008.6
20260901074613 73 190 0.0 0.0 0.00 0.00 0.00 94 1008.7
20260901074114 73 190 0.0 0.0 0.00 0.00 0.00 94 1008.5
20260901073610 73 190 0.0 0.0 0.00 0.00 0.00 94 1008.3
20260901073105 73 190 0.0 0.0 0.00 0.00 0.00 94 1008.5
20260901072600 73 190 0.0 0.0 0.00 0.00 0.00 93 1008.4
20260901072055 73 190 0.0 0.0 0.00 0.00 0.00 93 1008.4
20260901071555 73 190 0.0 0.0 0.00 0.00 0.00 93 1008.4
20260901071054 73 190 0.0 0.0 0.00 0.00 0.00 93 1008.5
20260901070549 73 190 0.0 0.0 0.00 0.00 0.00 93 1008.5
20260901070044 73 190 0.0 0.0 0.00 0.00 0.00 93 1008.6
20260901065538 74 187 0.0 0.0 0.00 0.00 0.00 93 1008.5
20260901065033 74 190 0.0 0.0 0.00 0.00 0.00 93 1008.7
20260901064530 74 190 0.0 0.0 0.00 0.00 0.00 92 1008.5
20260901064026 74 190 0.0 0.0 0.00 0.00 0.00 92 1008.8
20260901063518 74 190 0.0 0.0 0.00 0.00 0.00 92 1008.7
20260901063013 74 190 0.0 0.0 0.00 0.00 0.00 92 1008.6
20260901062508 74 190 0.0 0.0 0.00 0.00 0.00 92 1008.8
20260901061959 74 191 0.0 0.0 0.00 0.00 0.00 91 1008.9
20260901061455 74 190 0.0 0.0 0.00 0.00 0.00 91 1008.9
20260901060955 75 191 0.0 0.0 0.00 0.00 0.00 91 1008.8
20260901060449 75 191 0.0 0.0 0.00 0.00 0.00 91 1008.8
20260901055949 75 190 0.0 0.0 0.00 0.00 0.00 91 1008.9
20260901055446 76 189 0.0 0.0 0.00 0.00 0.00 90 1008.9
20260901054942 76 188 0.0 0.0 0.00 0.00 0.00 90 1008.9
20260901054439 75 185 0.0 0.0 0.00 0.00 0.00 91 1009.0
20260901053935 75 189 0.0 0.0 0.00 0.00 0.00 91 1008.9
20260901053430 75 191 0.0 0.0 0.00 0.00 0.00 91 1009.0
20260901052926 75 191 0.0 0.0 0.00 0.00 0.00 90 1008.8
20260901052421 75 191 0.0 0.0 0.00 0.00 0.00 91 1009.1
20260901051920 75 192 0.0 0.0 0.00 0.00 0.00 90 1009.1
20260901051415 75 192 0.0 0.0 0.00 0.00 0.00 90 1008.8
20260901050909 75 192 0.0 0.0 0.00 0.00 0.00 90 1008.9
20260901050406 75 192 0.0 0.0 0.00 0.00 0.00 90 1008.9
20260901045905 75 192 0.0 0.0 0.00 0.00 0.00 90 1008.8
20260901045359 75 192 0.0 0.0 0.00 0.00 0.00 90 1008.9
20260901044855 75 192 0.0 0.0 0.00 0.00 0.00 90 1008.9
20260901044351 75 192 0.0 0.0 0.00 0.00 0.00 89 1009.0
20260901043847 75 192 0.0 0.0 0.00 0.00 0.00 89 1009.0
20260901043343 76 192 0.0 0.0 0.00 0.00 0.00 89 1009.0
20260901042842 76 192 0.0 0.0 0.00 0.00 0.00 89 1009.0
20260901042337 76 192 0.0 0.0 0.00 0.00 0.00 88 1009.1
20260901041832 76 192 0.0 0.0 0.00 0.00 0.00 88 1008.9
20260901041328 76 192 0.0 0.0 0.00 0.00 0.00 88 1009.0
20260901040828 76 192 0.0 0.0 0.00 0.00 0.00 88 1008.9
20260901040327 76 192 0.0 0.0 0.00 0.00 0.00 88 1008.9
20260901035826 76 192 0.0 0.0 0.00 0.00 0.00 88 1008.9
20260901035326 76 192 0.0 0.0 0.00 0.00 0.00 87 1008.8
20260901034824 76 192 0.0 0.0 0.00 0.00 0.00 87 1008.8
20260901034320 77 192 0.0 0.0 0.00 0.00 0.00 87 1008.8
20260901033819 77 191 0.0 0.0 0.00 0.00 0.00 86 1008.7
20260901033319 77 191 0.0 0.0 0.00 0.00 0.00 86 1008.7
20260901032817 77 191 0.0 0.0 0.00 0.00 0.00 86 1008.8
20260901032316 77 191 0.0 0.0 0.00 0.00 0.00 86 1008.7
20260901031812 77 191 0.0 0.0 0.00 0.00 0.00 85 1008.7
20260901031308 77 191 0.0 0.0 0.00 0.00 0.00 85 1008.9
20260901030808 78 191 0.0 0.0 0.00 0.00 0.00 85 1008.6
20260901030303 78 191 0.0 0.0 0.00 0.00 0.00 84 1008.9
20260901025802 78 191 0.0 0.0 0.00 0.00 0.00 84 1008.7
20260901025257 78 191 0.0 0.0 0.00 0.00 0.00 83 1008.8
20260901024752 78 191 0.0 0.0 0.00 0.00 0.00 82 1008.6
20260901024251 79 191 0.0 0.0 0.00 0.00 0.00 82 1008.7
20260901023749 79 191 0.0 0.0 0.00 0.00 0.00 81 1008.6
20260901023244 79 191 0.0 0.0 0.00 0.00 0.00 81 1008.5
20260901022740 79 191 0.0 0.0 0.00 0.00 0.00 81 1008.6
20260901022235 79 191 0.0 0.0 0.00 0.00 0.00 81 1008.5
20260901021730 79 191 0.0 0.0 0.00 0.00 0.00 80 1008.5
20260901021226 80 191 0.0 0.0 0.00 0.00 0.00 79 1008.5
20260901020721 80 191 0.0 0.0 0.00 0.00 0.00 78 1008.4
20260901020216 80 191 0.0 0.0 0.00 0.00 0.00 77 1008.2
20260901015711 80 191 0.0 0.0 0.00 0.00 0.00 77 1008.2
20260901015207 81 191 0.0 0.0 0.00 0.00 0.00 76 1008.1
20260901014701 81 191 0.0 0.0 0.00 0.00 0.00 75 1008.2
20260901014157 81 191 0.0 0.0 0.00 0.00 0.00 73 1008.2
20260901013652 82 191 0.0 0.0 0.00 0.00 0.00 73 1007.8
20260901013149 82 191 0.0 0.0 0.00 0.00 0.00 72 1007.9
20260901012648 82 190 0.0 0.0 0.00 0.00 0.00 72 1007.9
20260901012143 83 192 0.0 0.0 0.00 0.00 0.00 70 1007.6
20260901011639 84 192 0.0 0.0 0.00 0.00 0.00 69 1007.9
20260901011138 84 192 0.0 0.0 0.00 0.00 0.00 68 1007.5
20260901010633 84 192 0.0 0.0 0.00 0.00 0.00 68 1007.6
20260901010133 84 192 0.0 0.0 0.00 0.00 0.00 68 1007.7
20260901005632 84 190 0.0 0.0 0.00 0.00 0.00 67 1007.5
20260901005128 85 190 0.0 0.0 0.00 0.00 0.00 66 1007.7
20260901004627 85 190 0.0 0.0 0.00 0.00 0.00 65 1007.5
20260901004122 85 190 0.0 0.0 0.00 0.00 0.00 65 1007.5
20260901003617 86 190 0.0 0.0 0.00 0.00 0.00 65 1007.5
20260901003116 86 197 0.0 0.0 0.00 0.00 0.00 65 1007.4
20260901002615 86 194 0.0 0.0 0.00 0.00 0.00 63 1007.5
20260901002110 86 193 0.0 0.0 0.00 0.00 0.00 63 1007.4
20260901001605 87 192 0.0 0.0 0.00 0.00 0.00 62 1007.6
20260901001100 87 192 0.0 0.0 0.00 0.00 0.00 61 1007.7
20260901000555 88 192 0.0 0.0 0.00 0.00 0.00 60 1007.5
20260901000052 89 190 0.0 0.0 0.00 0.00 0.00 59 1007.6
20260831235545 89 191 0.0 2.0 0.00 0.00 0.00 58 1007.6
20260831235041 90 192 0.0 0.0 0.00 0.00 0.00 57 1007.7
20260831234540 91 192 0.0 1.0 0.00 0.00 0.00 56 1007.5
20260831234036 92 207 2.0 3.0 0.00 0.00 0.00 53 1007.5
20260831233531 92 189 1.0 2.0 0.00 0.00 0.00 52 1007.8
20260831233027 92 206 2.0 4.0 0.00 0.00 0.00 52 1007.9
20260831232522 92 198 1.0 2.0 0.00 0.00 0.00 53 1007.9
20260831232018 91 195 2.0 3.0 0.00 0.00 0.00 53 1007.8
20260831231514 91 215 1.0 2.0 0.00 0.00 0.00 54 1007.9
20260831231009 92 193 0.0 1.0 0.00 0.00 0.00 54 1007.9
20260831230504 93 191 2.0 3.0 0.00 0.00 0.00 51 1008.0
20260831225958 93 193 0.0 2.0 0.00 0.00 0.00 51 1008.1
20260831225455 93 193 1.0 2.0 0.00 0.00 0.00 51 1007.9
20260831224949 93 230 1.0 2.0 0.00 0.00 0.00 50 1008.0
20260831224448 93 218 2.0 6.0 0.00 0.00 0.00 50 1008.0
20260831223944 93 193 0.0 1.0 0.00 0.00 0.00 50 1007.9
20260831223439 93 189 2.0 3.0 0.00 0.00 0.00 50 1008.2
20260831222936 94 190 1.0 4.0 0.00 0.00 0.00 50 1008.0
20260831222432 94 207 2.0 2.0 0.00 0.00 0.00 50 1008.0
20260831221931 94 205 0.0 4.0 0.00 0.00 0.00 49 1008.1
20260831221428 94 214 3.0 4.0 0.00 0.00 0.00 48 1008.0
20260831220923 95 228 3.0 4.0 0.00 0.00 0.00 47 1008.1
20260831220418 95 194 0.0 1.0 0.00 0.00 0.00 47 1008.2
20260831215913 96 206 1.0 3.0 0.00 0.00 0.00 46 1008.1
20260831215409 96 201 2.0 3.0 0.00 0.00 0.00 47 1008.3
20260831214905 95 197 1.0 4.0 0.00 0.00 0.00 47 1008.1
20260831214402 96 209 2.0 2.0 0.00 0.00 0.00 47 1008.3
20260831213857 96 176 2.0 3.0 0.00 0.00 0.00 47 1008.6
20260831213349 97 194 1.0 4.0 0.00 0.00 0.00 46 1008.4
20260831212843 96 201 1.0 4.0 0.00 0.00 0.00 46 1008.3
20260831212340 97 210 0.0 2.0 0.00 0.00 0.00 46 1008.3
20260831211839 98 217 3.0 3.0 0.00 0.00 0.00 46 1008.4
20260831211333 97 193 0.0 1.0 0.00 0.00 0.00 46 1008.5
20260831210833 97 195 0.0 4.0 0.00 0.00 0.00 46 1008.5
20260831210329 96 202 2.0 2.0 0.00 0.00 0.00 46 1008.4
20260831205829 97 213 2.0 4.0 0.00 0.00 0.00 46 1008.7
20260831205326 97 195 1.0 2.0 0.00 0.00 0.00 45 1008.7
20260831204825 98 204 1.0 6.0 0.00 0.00 0.00 44 1008.7
20260831204324 96 209 2.0 3.0 0.00 0.00 0.00 46 1008.7
20260831203824 96 180 1.0 3.0 0.00 0.00 0.00 45 1008.7
20260831203319 97 232 3.0 6.0 0.00 0.00 0.00 45 1008.6
20260831202817 96 200 0.0 3.0 0.00 0.00 0.00 47 1008.8
20260831202312 96 207 1.0 4.0 0.00 0.00 0.00 46 1008.6
20260831201812 98 235 3.0 4.0 0.00 0.00 0.00 44 1008.7
20260831201311 96 200 0.0 0.0 0.00 0.00 0.00 49 1008.9
20260831200807 94 194 0.0 1.0 0.00 0.00 0.00 51 1009.0
20260831200302 96 197 0.0 0.0 0.00 0.00 0.00 47 1009.1
20260831195757 97 185 0.0 1.0 0.00 0.00 0.00 45 1009.0
20260831195253 96 200 2.0 4.0 0.00 0.00 0.00 46 1009.3
20260831194747 97 223 3.0 4.0 0.00 0.00 0.00 46 1009.3
20260831194243 96 205 2.0 4.0 0.00 0.00 0.00 45 1009.2
20260831193736 96 204 2.0 6.0 0.00 0.00 0.00 46 1009.4
20260831193232 96 201 4.0 6.0 0.00 0.00 0.00 46 1009.3
20260831192728 96 191 2.0 7.0 0.00 0.00 0.00 47 1009.5
20260831192223 96 240 3.0 7.0 0.00 0.00 0.00 47 1009.4
20260831191719 95 215 2.0 6.0 0.00 0.00 0.00 48 1009.5
20260831191215 96 200 2.0 2.0 0.00 0.00 0.00 48 1009.4
20260831190710 96 197 1.0 3.0 0.00 0.00 0.00 48 1009.4
20260831190209 95 196 2.0 3.0 0.00 0.00 0.00 49 1009.6
20260831185704 96 186 3.0 4.0 0.00 0.00 0.00 48 1009.8
20260831185200 95 214 3.0 4.0 0.00 0.00 0.00 49 1009.7
20260831184659 95 182 3.0 7.0 0.00 0.00 0.00 50 1009.6
20260831184155 95 192 3.0 8.0 0.00 0.00 0.00 49 1009.6
20260831183654 94 211 2.0 4.0 0.00 0.00 0.00 50 1009.8
20260831183153 95 169 4.0 6.0 0.00 0.00 0.00 51 1009.8
20260831182652 95 208 2.0 4.0 0.00 0.00 0.00 51 1010.0
20260831182148 94 199 2.0 4.0 0.00 0.00 0.00 53 1010.0
20260831181643 94 198 2.0 4.0 0.00 0.00 0.00 54 1010.0
20260831181137 93 197 3.0 4.0 0.00 0.00 0.00 53 1009.9
20260831180633 94 190 0.0 3.0 0.00 0.00 0.00 54 1010.1
20260831180127 93 193 0.0 2.0 0.00 0.00 0.00 53 1010.2
20260831175622 94 202 2.0 3.0 0.00 0.00 0.00 51 1010.2
20260831175120 94 210 1.0 3.0 0.00 0.00 0.00 52 1010.2
20260831174620 93 191 1.0 4.0 0.00 0.00 0.00 52 1010.3
20260831174119 93 212 2.0 6.0 0.00 0.00 0.00 53 1010.4
20260831173618 93 212 4.0 7.0 0.00 0.00 0.00 54 1010.5
20260831173115 93 145 1.0 1.0 0.00 0.00 0.00 56 1010.5
20260831172614 94 177 7.0 8.0 0.00 0.00 0.00 54 1010.5
20260831172114 94 195 0.0 1.0 0.00 0.00 0.00 55 1010.4
20260831171610 94 216 3.0 4.0 0.00 0.00 0.00 54 1010.4
20260831171107 92 203 4.0 6.0 0.00 0.00 0.00 55 1010.7
20260831170604 92 187 3.0 4.0 0.00 0.00 0.00 55 1010.7
20260831170101 92 192 2.0 7.0 0.00 0.00 0.00 55 1010.7
20260831165601 93 195 1.0 4.0 0.00 0.00 0.00 55 1010.9
20260831165057 93 193 2.0 3.0 0.00 0.00 0.00 56 1011.0
20260831164553 93 195 2.0 4.0 0.00 0.00 0.00 55 1011.0
20260831164049 92 226 1.0 7.0 0.00 0.00 0.00 57 1011.0
20260831163543 91 188 0.0 2.0 0.00 0.00 0.00 58 1011.1
20260831163039 92 194 5.0 8.0 0.00 0.00 0.00 56 1011.2
20260831162538 91 197 0.0 2.0 0.00 0.00 0.00 61 1011.1
20260831162036 91 233 4.0 4.0 0.00 0.00 0.00 60 1011.0
20260831161532 91 192 4.0 7.0 0.00 0.00 0.00 60 1011.2
20260831161029 91 200 4.0 6.0 0.00 0.00 0.00 60 1011.1
20260831160527 91 225 4.0 6.0 0.00 0.00 0.00 61 1011.1
20260831160023 91 190 1.0 4.0 0.00 0.00 0.00 60 1011.0
20260831155517 90 197 0.0 3.0 0.00 0.00 0.00 63 1011.1
20260831155013 89 201 2.0 4.0 0.00 0.00 0.00 63 1011.2
20260831154509 89 233 3.0 6.0 0.00 0.00 0.00 62 1011.1
20260831154009 90 234 4.0 7.0 0.00 0.00 0.00 62 1011.2
20260831153509 90 201 4.0 4.0 0.00 0.00 0.00 63 1011.1
20260831153006 89 204 1.0 3.0 0.00 0.00 0.00 64 1011.0
20260831152500 89 177 3.0 4.0 0.00 0.00 0.00 65 1011.0
20260831151955 88 210 1.0 3.0 0.00 0.00 0.00 65 1010.9
20260831151455 89 203 3.0 4.0 0.00 0.00 0.00 65 1010.9
20260831150950 89 211 1.0 3.0 0.00 0.00 0.00 65 1010.8
20260831150446 88 192 1.0 4.0 0.00 0.00 0.00 65 1010.8
20260831145945 87 201 1.0 4.0 0.00 0.00 0.00 66 1011.0